Time,TemperatureF,DewpointF,PressureIn,WindDirection,WindDirectionDegrees,WindSpeedMPH,WindSpeedGustMPH,Humidity,HourlyPrecipIn,Conditions,Clouds,dailyrainin,SoftwareType,DateUTC
2013-07-24 00:00:00,71.1,69.3,29.61,West,279,0.0,0.0,94,0.00,,OVC090,0.00,VWS V14.00,2013-07-24 04:00:00,
2013-07-24 00:01:00,71.1,69.3,29.61,West,279,0.0,0.0,94,0.00,,CLR,0.00,VWS V14.00,2013-07-24 04:01:00,
2013-07-24 00:03:00,71.2,69.4,29.62,West,280,0.0,0.0,94,0.00,,CLR,0.00,VWS V14.00,2013-07-24 04:03:00,
2013-07-24 00:04:00,71.2,69.4,29.62,West,280,0.0,0.0,94,0.00,,CLR,0.00,VWS V14.00,2013-07-24 04:04:00,
2013-07-24 00:06:00,71.2,69.4,29.62,WSW,243,0.0,0.0,94,0.00,,CLR,0.00,VWS V14.00,2013-07-24 04:06:00,
2013-07-24 00:08:00,71.2,69.4,29.62,WSW,243,0.0,0.0,94,0.00,,CLR,0.00,VWS V14.00,2013-07-24 04:08:00,
2013-07-24 00:13:00,71.1,69.3,29.62,SW,219,0.0,0.0,94,0.00,,CLR,0.00,VWS V14.00,2013-07-24 04:13:00,
2013-07-24 00:18:00,71.1,69.3,29.62,SW,219,0.0,0.0,94,0.00,,CLR,0.00,VWS V14.00,2013-07-24 04:18:00,
2013-07-24 00:23:00,71.0,69.2,29.62,SW,219,0.0,0.0,94,0.00,,CLR,0.00,VWS V14.00,2013-07-24 04:23:00,
2013-07-24 00:28:00,70.9,69.1,29.62,SW,219,0.0,0.0,94,0.00,,CLR,0.00,VWS V14.00,2013-07-24 04:28:00,
2013-07-24 00:30:00,70.8,69.0,29.62,SW,219,0.0,0.0,94,0.00,,OVC090,0.00,VWS V14.00,2013-07-24 04:30:00,
2013-07-24 00:33:00,70.8,69.0,29.62,SW,219,0.0,0.0,94,0.00,,CLR,0.00,VWS V14.00,2013-07-24 04:33:00,
2013-07-24 00:38:00,70.7,68.9,29.62,SW,218,0.0,0.0,94,0.00,,CLR,0.00,VWS V14.00,2013-07-24 04:38:00,
2013-07-24 00:43:00,70.7,68.9,29.62,SW,219,0.0,0.0,94,0.00,,CLR,0.00,VWS V14.00,2013-07-24 04:43:00,
2013-07-24 00:48:00,70.8,69.0,29.62,SSW,203,0.0,0.0,94,0.00,,CLR,0.00,VWS V14.00,2013-07-24 04:48:00,
2013-07-24 00:54:00,70.9,69.1,29.62,SSW,203,0.0,0.0,94,0.00,,CLR,0.00,VWS V14.00,2013-07-24 04:54:00,
2013-07-24 00:59:00,70.9,69.1,29.62,SSW,203,0.0,0.0,94,0.00,,CLR,0.00,VWS V14.00,2013-07-24 04:59:00,
2013-07-24 01:00:00,70.9,69.1,29.62,SSW,198,0.0,0.0,94,0.00,,OVC090,0.00,VWS V14.00,2013-07-24 05:00:00,
2013-07-24 01:04:00,71.0,69.2,29.62,South,176,0.0,0.0,94,0.00,,CLR,0.00,VWS V14.00,2013-07-24 05:04:00,
2013-07-24 01:09:00,71.1,69.3,29.62,South,176,0.0,0.0,94,0.00,,CLR,0.00,VWS V14.00,2013-07-24 05:09:00,
2013-07-24 01:14:00,71.1,69.0,29.62,South,176,0.0,0.0,93,0.00,,CLR,0.00,VWS V14.00,2013-07-24 05:14:00,
2013-07-24 01:19:00,71.2,69.1,29.62,South,176,0.0,0.0,93,0.00,,CLR,0.00,VWS V14.00,2013-07-24 05:19:00,
2013-07-24 01:24:00,71.2,68.8,29.62,South,177,0.0,0.0,92,0.00,,CLR,0.00,VWS V14.00,2013-07-24 05:24:00,
2013-07-24 01:29:00,71.3,68.9,29.62,South,176,0.0,0.0,92,0.00,,CLR,0.00,VWS V14.00,2013-07-24 05:29:00,
2013-07-24 01:30:00,71.3,68.9,29.62,South,176,0.0,0.0,92,0.00,,OVC090,0.00,VWS V14.00,2013-07-24 05:30:00,
2013-07-24 01:34:00,71.4,69.0,29.62,South,176,0.0,0.0,92,0.00,,CLR,0.00,VWS V14.00,2013-07-24 05:34:00,
2013-07-24 01:39:00,71.5,68.7,29.62,South,176,0.0,0.0,91,0.00,,CLR,0.00,VWS V14.00,2013-07-24 05:39:00,
2013-07-24 01:44:00,71.6,68.8,29.62,South,176,0.0,0.0,91,0.00,,CLR,0.00,VWS V14.00,2013-07-24 05:44:00,
2013-07-24 01:49:00,71.6,68.8,29.62,SSW,193,0.0,0.0,91,0.00,,CLR,0.00,VWS V14.00,2013-07-24 05:49:00,
2013-07-24 01:54:00,71.4,68.6,29.62,SSW,193,0.0,0.0,91,0.00,,CLR,0.00,VWS V14.00,2013-07-24 05:54:00,
2013-07-24 01:59:00,71.2,68.4,29.62,South,184,0.0,0.0,91,0.00,,CLR,0.00,VWS V14.00,2013-07-24 05:59:00,
2013-07-24 02:00:00,71.2,68.4,29.62,SSW,193,0.0,0.0,91,0.00,,OVC090,0.00,VWS V14.00,2013-07-24 06:00:00,
2013-07-24 02:05:00,71.2,68.1,29.61,South,191,0.0,0.0,90,0.00,,CLR,0.00,VWS V14.00,2013-07-24 06:05:00,
2013-07-24 02:10:00,71.2,68.1,29.61,South,191,0.0,0.0,90,0.00,,CLR,0.00,VWS V14.00,2013-07-24 06:10:00,
2013-07-24 02:15:00,71.2,68.1,29.61,South,191,0.0,0.0,90,0.00,,CLR,0.00,VWS V14.00,2013-07-24 06:15:00,
2013-07-24 02:20:00,71.1,67.7,29.61,South,191,0.0,0.0,89,0.00,,CLR,0.00,VWS V14.00,2013-07-24 06:20:00,
2013-07-24 02:25:00,70.9,67.5,29.61,South,191,0.0,0.0,89,0.00,,CLR,0.00,VWS V14.00,2013-07-24 06:25:00,
2013-07-24 02:30:00,70.8,67.4,29.61,South,191,0.0,0.0,89,0.00,,CLR,0.00,VWS V14.00,2013-07-24 06:30:00,
2013-07-24 02:36:00,70.6,67.2,29.61,South,191,0.0,0.0,89,0.00,,CLR,0.00,VWS V14.00,2013-07-24 06:36:00,
2013-07-24 02:41:00,70.4,67.3,29.61,South,191,0.0,0.0,90,0.00,,CLR,0.00,VWS V14.00,2013-07-24 06:41:00,
2013-07-24 02:46:00,70.5,67.4,29.61,WNW,300,0.0,1.0,90,0.00,,CLR,0.00,VWS V14.00,2013-07-24 06:46:00,
2013-07-24 02:51:00,70.7,67.3,29.61,WNW,300,0.0,1.0,89,0.00,,CLR,0.00,VWS V14.00,2013-07-24 06:51:00,
2013-07-24 02:56:00,70.7,67.3,29.61,WNW,300,0.0,1.0,89,0.00,,CLR,0.00,VWS V14.00,2013-07-24 06:56:00,
2013-07-24 03:00:00,70.7,67.3,29.61,ESE,104,1.0,1.0,89,0.00,,OVC090,0.00,VWS V14.00,2013-07-24 07:00:00,
2013-07-24 03:01:00,70.8,67.4,29.61,North,11,0.0,2.0,89,0.00,,CLR,0.00,VWS V14.00,2013-07-24 07:01:00,
2013-07-24 03:06:00,71.0,67.3,29.61,North,11,0.0,2.0,88,0.00,,CLR,0.00,VWS V14.00,2013-07-24 07:06:00,
2013-07-24 03:12:00,71.2,66.8,29.61,WNW,290,0.0,2.0,86,0.00,,CLR,0.00,VWS V14.00,2013-07-24 07:12:00,
2013-07-24 03:17:00,71.6,66.9,29.61,WNW,300,0.0,2.0,85,0.00,,CLR,0.00,VWS V14.00,2013-07-24 07:17:00,
2013-07-24 03:22:00,72.4,66.6,29.61,WNW,283,0.0,3.0,82,0.00,,CLR,0.00,VWS V14.00,2013-07-24 07:22:00,
2013-07-24 03:27:00,73.2,66.7,29.61,NW,315,2.0,7.0,80,0.00,,CLR,0.00,VWS V14.00,2013-07-24 07:27:00,
2013-07-24 03:30:00,73.3,66.4,29.60,North,8,3.0,7.0,79,0.00,,OVC090,0.00,VWS V14.00,2013-07-24 07:30:00,
2013-07-24 03:32:00,73.5,66.6,29.60,NW,307,0.0,5.0,79,0.00,,CLR,0.00,VWS V14.00,2013-07-24 07:32:00,
2013-07-24 03:37:00,73.4,66.5,29.60,NW,316,2.0,5.0,79,0.00,,CLR,0.00,VWS V14.00,2013-07-24 07:37:00,
2013-07-24 03:42:00,73.4,66.5,29.60,WNW,293,1.0,5.0,79,0.00,,CLR,0.00,VWS V14.00,2013-07-24 07:42:00,
2013-07-24 03:47:00,73.3,66.8,29.60,NNW,333,1.0,5.0,80,0.00,,CLR,0.00,VWS V14.00,2013-07-24 07:47:00,
2013-07-24 03:52:00,73.1,66.6,29.60,NW,314,1.0,5.0,80,0.00,,CLR,0.00,VWS V14.00,2013-07-24 07:52:00,
2013-07-24 03:58:00,72.9,66.7,29.60,NW,311,0.0,5.0,81,0.00,,CLR,0.00,VWS V14.00,2013-07-24 07:58:00,
2013-07-24 04:00:00,72.8,66.6,29.60,NW,308,2.0,5.0,81,0.00,,OVC090,0.00,VWS V14.00,2013-07-24 08:00:00,
2013-07-24 04:03:00,72.7,66.5,29.60,NW,312,0.0,4.0,81,0.00,,CLR,0.00,VWS V14.00,2013-07-24 08:03:00,
2013-07-24 04:09:00,72.4,66.6,29.60,WNW,288,0.0,4.0,82,0.00,,CLR,0.00,VWS V14.00,2013-07-24 08:09:00,
2013-07-24 04:14:00,72.1,66.7,29.60,West,261,2.0,4.0,83,0.00,,CLR,0.00,VWS V14.00,2013-07-24 08:14:00,
2013-07-24 04:19:00,72.0,66.6,29.60,NNW,338,0.0,4.0,83,0.00,,CLR,0.00,VWS V14.00,2013-07-24 08:19:00,
2013-07-24 04:24:00,71.7,66.6,29.60,West,264,0.0,4.0,84,0.00,,CLR,0.00,VWS V14.00,2013-07-24 08:24:00,
2013-07-24 04:29:00,71.6,66.5,29.60,NNW,339,0.0,4.0,84,0.00,,CLR,0.00,VWS V14.00,2013-07-24 08:29:00,
2013-07-24 04:30:00,71.6,66.5,29.60,NNW,339,0.0,4.0,84,0.00,,OVC090,0.00,VWS V14.00,2013-07-24 08:30:00,
2013-07-24 04:34:00,71.4,66.3,29.60,NNW,329,0.0,1.0,84,0.00,,CLR,0.00,VWS V14.00,2013-07-24 08:34:00,
2013-07-24 04:39:00,71.2,66.1,29.60,ESE,104,0.0,1.0,84,0.00,,CLR,0.00,VWS V14.00,2013-07-24 08:39:00,
2013-07-24 04:44:00,71.0,65.9,29.60,ESE,104,0.0,1.0,84,0.00,,CLR,0.00,VWS V14.00,2013-07-24 08:44:00,
2013-07-24 04:49:00,71.3,66.2,29.60,NW,304,0.0,4.0,84,0.00,,CLR,0.00,VWS V14.00,2013-07-24 08:49:00,
2013-07-24 04:55:00,71.2,66.1,29.61,SSW,204,2.0,4.0,84,0.00,,CLR,0.00,VWS V14.00,2013-07-24 08:55:00,
2013-07-24 05:00:00,71.0,65.9,29.61,SW,214,0.0,0.0,84,0.00,,CLR,0.00,VWS V14.00,2013-07-24 09:00:00,
2013-07-24 05:05:00,71.2,65.8,29.61,WNW,300,2.0,3.0,83,0.00,,CLR,0.00,VWS V14.00,2013-07-24 09:05:00,
2013-07-24 05:10:00,71.3,65.9,29.61,NW,308,1.0,3.0,83,0.00,,CLR,0.00,VWS V14.00,2013-07-24 09:10:00,
2013-07-24 05:15:00,71.2,65.4,29.62,WNW,290,0.0,3.0,82,0.00,,CLR,0.00,VWS V14.00,2013-07-24 09:15:00,
2013-07-24 05:20:00,71.2,65.4,29.62,NW,309,1.0,4.0,82,0.00,,CLR,0.00,VWS V14.00,2013-07-24 09:20:00,
2013-07-24 05:25:00,71.4,65.6,29.62,NNW,342,2.0,4.0,82,0.00,,CLR,0.00,VWS V14.00,2013-07-24 09:25:00,
2013-07-24 05:30:00,71.5,65.7,29.62,NE,35,2.0,2.0,82,0.00,,CLR,0.00,VWS V14.00,2013-07-24 09:30:00,
2013-07-24 05:35:00,71.5,65.7,29.62,West,279,1.0,6.0,82,0.00,,CLR,0.00,VWS V14.00,2013-07-24 09:35:00,
2013-07-24 05:40:00,71.6,65.8,29.62,NW,311,3.0,6.0,82,0.00,,CLR,0.00,VWS V14.00,2013-07-24 09:40:00,
2013-07-24 05:46:00,71.6,65.5,29.62,East,80,1.0,8.0,81,0.00,,CLR,0.00,VWS V14.00,2013-07-24 09:46:00,
2013-07-24 05:51:00,71.6,65.5,29.62,NW,316,1.0,8.0,81,0.00,,CLR,0.00,VWS V14.00,2013-07-24 09:51:00,
2013-07-24 05:56:00,71.5,65.4,29.62,NW,304,2.0,8.0,81,0.00,,CLR,0.00,VWS V14.00,2013-07-24 09:56:00,
2013-07-24 06:00:00,71.4,65.6,29.63,NNW,340,1.0,8.0,82,0.00,,OVC090,0.00,VWS V14.00,2013-07-24 10:00:00,
2013-07-24 06:01:00,71.4,65.6,29.63,NNW,331,1.0,4.0,82,0.00,,CLR,0.00,VWS V14.00,2013-07-24 10:01:00,
2013-07-24 06:06:00,71.2,65.4,29.63,NW,311,2.0,4.0,82,0.00,,CLR,0.00,VWS V14.00,2013-07-24 10:06:00,
2013-07-24 06:11:00,71.1,65.3,29.63,NW,326,1.0,4.0,82,0.00,,CLR,0.00,VWS V14.00,2013-07-24 10:11:00,
2013-07-24 06:16:00,71.2,65.4,29.63,NNW,331,2.0,6.0,82,0.00,,CLR,0.00,VWS V14.00,2013-07-24 10:16:00,
2013-07-24 06:21:00,71.1,65.3,29.63,NW,309,1.0,6.0,82,0.00,,CLR,0.00,VWS V14.00,2013-07-24 10:21:00,
2013-07-24 06:26:00,71.1,65.3,29.64,North,351,1.0,6.0,82,0.00,,CLR,0.00,VWS V14.00,2013-07-24 10:26:00,
2013-07-24 06:30:00,71.1,65.3,29.64,NW,316,0.0,6.0,82,0.00,,OVC090,0.00,VWS V14.00,2013-07-24 10:30:00,
2013-07-24 06:31:00,71.0,65.2,29.64,West,267,0.0,2.0,82,0.00,,CLR,0.00,VWS V14.00,2013-07-24 10:31:00,
2013-07-24 06:37:00,70.9,65.5,29.64,West,281,0.0,4.0,83,0.00,,CLR,0.00,VWS V14.00,2013-07-24 10:37:00,
2013-07-24 06:42:00,70.9,65.5,29.64,WSW,253,0.0,4.0,83,0.00,,CLR,0.00,VWS V14.00,2013-07-24 10:42:00,
2013-07-24 06:47:00,71.4,65.6,29.64,ESE,122,2.0,4.0,82,0.00,,CLR,0.00,VWS V14.00,2013-07-24 10:47:00,
2013-07-24 06:52:00,71.8,66.4,29.65,SW,226,1.0,4.0,83,0.00,,CLR,0.00,VWS V14.00,2013-07-24 10:52:00,
2013-07-24 06:57:00,72.2,66.4,29.64,SSW,210,1.0,4.0,82,0.00,,CLR,0.00,VWS V14.00,2013-07-24 10:57:00,
2013-07-24 07:00:00,72.3,66.2,29.65,SW,232,1.0,4.0,81,0.00,,OVC090,0.00,VWS V14.00,2013-07-24 11:00:00,
2013-07-24 07:02:00,72.6,66.4,29.65,WSW,257,1.0,3.0,81,0.00,,CLR,0.00,VWS V14.00,2013-07-24 11:02:00,
2013-07-24 07:07:00,72.9,66.7,29.65,SW,224,2.0,4.0,81,0.00,,CLR,0.00,VWS V14.00,2013-07-24 11:07:00,
2013-07-24 07:12:00,73.3,67.1,29.66,SW,219,0.0,4.0,81,0.00,,CLR,0.00,VWS V14.00,2013-07-24 11:12:00,
2013-07-24 07:18:00,74.0,66.7,29.66,WNW,285,2.0,4.0,78,0.00,,CLR,0.00,VWS V14.00,2013-07-24 11:18:00,
2013-07-24 07:23:00,74.7,67.4,29.66,SE,136,0.0,4.0,78,0.00,,CLR,0.00,VWS V14.00,2013-07-24 11:23:00,
2013-07-24 07:28:00,75.3,67.6,29.66,SE,127,0.0,4.0,77,0.00,,CLR,0.00,VWS V14.00,2013-07-24 11:28:00,
2013-07-24 07:30:00,75.4,67.7,29.67,SE,127,0.0,4.0,77,0.00,,OVC090,0.00,VWS V14.00,2013-07-24 11:30:00,
2013-07-24 07:33:00,75.9,67.8,29.67,West,275,0.0,2.0,76,0.00,,CLR,0.00,VWS V14.00,2013-07-24 11:33:00,
2013-07-24 07:38:00,76.3,67.4,29.67,ESE,113,2.0,3.0,74,0.00,,CLR,0.00,VWS V14.00,2013-07-24 11:38:00,
2013-07-24 07:43:00,76.7,67.8,29.67,North,354,0.0,3.0,74,0.00,,CLR,0.00,VWS V14.00,2013-07-24 11:43:00,
2013-07-24 07:48:00,76.9,67.6,29.67,NNW,334,1.0,3.0,73,0.00,,CLR,0.00,VWS V14.00,2013-07-24 11:48:00,
2013-07-24 07:53:00,76.7,67.8,29.67,NNW,333,0.0,3.0,74,0.00,,CLR,0.00,VWS V14.00,2013-07-24 11:53:00,
2013-07-24 07:59:00,76.7,68.6,29.67,SE,125,0.0,6.0,76,0.00,,CLR,0.00,VWS V14.00,2013-07-24 11:59:00,
2013-07-24 08:00:00,76.7,68.6,29.67,South,174,1.0,6.0,76,0.00,,OVC090,0.00,VWS V14.00,2013-07-24 12:00:00,
2013-07-24 08:04:00,76.7,67.8,29.67,NW,323,1.0,4.0,74,0.00,,CLR,0.00,VWS V14.00,2013-07-24 12:04:00,
2013-07-24 08:09:00,77.1,67.8,29.68,NW,312,0.0,4.0,73,0.00,,CLR,0.00,VWS V14.00,2013-07-24 12:09:00,
2013-07-24 08:14:00,77.5,67.8,29.68,WNW,298,1.0,4.0,72,0.00,,CLR,0.00,VWS V14.00,2013-07-24 12:14:00,
2013-07-24 08:19:00,77.5,68.2,29.68,WNW,302,2.0,4.0,73,0.00,,CLR,0.00,VWS V14.00,2013-07-24 12:19:00,
2013-07-24 08:24:00,77.6,67.9,29.68,NNE,18,1.0,4.0,72,0.00,,CLR,0.00,VWS V14.00,2013-07-24 12:24:00,
2013-07-24 08:29:00,77.8,68.1,29.68,WSW,238,1.0,1.0,72,0.00,,CLR,0.00,VWS V14.00,2013-07-24 12:29:00,
2013-07-24 08:30:00,77.8,67.7,29.68,SW,221,1.0,10.0,71,0.00,,OVC090,0.00,VWS V14.00,2013-07-24 12:30:00,
2013-07-24 08:35:00,77.6,68.3,29.68,West,279,2.0,6.0,73,0.00,,CLR,0.00,VWS V14.00,2013-07-24 12:35:00,
2013-07-24 08:40:00,77.8,68.1,29.68,WNW,283,1.0,6.0,72,0.00,,CLR,0.00,VWS V14.00,2013-07-24 12:40:00,
2013-07-24 08:45:00,77.7,68.4,29.68,NW,314,0.0,6.0,73,0.00,,CLR,0.00,VWS V14.00,2013-07-24 12:45:00,
2013-07-24 08:50:00,77.3,68.0,29.69,SW,225,0.0,6.0,73,0.00,,CLR,0.00,VWS V14.00,2013-07-24 12:50:00,
2013-07-24 08:55:00,77.2,67.9,29.69,NW,316,0.0,6.0,73,0.00,,CLR,0.00,VWS V14.00,2013-07-24 12:55:00,
2013-07-24 09:00:00,77.5,68.2,29.69,NNW,327,0.0,1.0,73,0.00,,CLR,0.00,VWS V14.00,2013-07-24 13:00:00,
2013-07-24 09:05:00,77.7,67.6,29.70,NNW,331,5.0,5.0,71,0.00,,CLR,0.00,VWS V14.00,2013-07-24 13:05:00,
2013-07-24 09:10:00,77.5,68.2,29.70,North,357,0.0,5.0,73,0.00,,CLR,0.00,VWS V14.00,2013-07-24 13:10:00,
2013-07-24 09:16:00,78.0,68.2,29.70,NNW,336,5.0,5.0,72,0.00,,CLR,0.00,VWS V14.00,2013-07-24 13:16:00,
2013-07-24 09:21:00,77.5,67.8,29.70,NW,313,2.0,5.0,72,0.00,,CLR,0.00,VWS V14.00,2013-07-24 13:21:00,
2013-07-24 09:26:00,77.2,67.1,29.70,North,354,2.0,5.0,71,0.00,,CLR,0.00,VWS V14.00,2013-07-24 13:26:00,
2013-07-24 09:30:00,77.1,67.4,29.70,North,351,3.0,5.0,72,0.00,,OVC090,0.00,VWS V14.00,2013-07-24 13:30:00,
2013-07-24 09:31:00,77.0,67.7,29.70,NW,314,3.0,4.0,73,0.00,,CLR,0.00,VWS V14.00,2013-07-24 13:31:00,
2013-07-24 09:37:00,77.0,68.1,29.70,NNW,339,0.0,4.0,74,0.00,,CLR,0.00,VWS V14.00,2013-07-24 13:37:00,
2013-07-24 09:42:00,77.0,68.1,29.70,NNW,342,1.0,4.0,74,0.00,,CLR,0.00,VWS V14.00,2013-07-24 13:42:00,
2013-07-24 09:47:00,77.0,68.1,29.70,North,354,3.0,5.0,74,0.00,,CLR,0.00,VWS V14.00,2013-07-24 13:47:00,
2013-07-24 09:52:00,77.0,68.5,29.70,NW,310,1.0,5.0,75,0.00,,CLR,0.00,VWS V14.00,2013-07-24 13:52:00,
2013-07-24 09:58:00,77.8,68.9,29.70,WNW,302,2.0,5.0,74,0.00,,CLR,0.00,VWS V14.00,2013-07-24 13:58:00,
2013-07-24 10:00:00,77.9,68.6,29.70,WNW,298,2.0,5.0,73,0.00,,OVC090,0.00,VWS V14.00,2013-07-24 14:00:00,
2013-07-24 10:03:00,77.8,68.9,29.70,NNE,30,0.0,4.0,74,0.00,,CLR,0.00,VWS V14.00,2013-07-24 14:03:00,
2013-07-24 10:08:00,78.1,68.8,29.70,WNW,298,2.0,4.0,73,0.00,,CLR,0.00,VWS V14.00,2013-07-24 14:08:00,
2013-07-24 10:13:00,77.9,68.6,29.71,North,4,2.0,6.0,73,0.00,,CLR,0.00,VWS V14.00,2013-07-24 14:13:00,
2013-07-24 10:18:00,78.4,68.6,29.71,WSW,241,2.0,6.0,72,0.00,,CLR,0.00,VWS V14.00,2013-07-24 14:18:00,
2013-07-24 10:23:00,79.3,69.1,29.71,North,9,3.0,6.0,71,0.00,,CLR,0.00,VWS V14.00,2013-07-24 14:23:00,
2013-07-24 10:28:00,79.9,69.2,29.72,NNW,331,2.0,6.0,70,0.00,,CLR,0.00,VWS V14.00,2013-07-24 14:28:00,
2013-07-24 10:30:00,79.9,69.2,29.72,WNW,288,1.0,6.0,70,0.00,,OVC090,0.00,VWS V14.00,2013-07-24 14:30:00,
2013-07-24 10:34:00,80.0,69.3,29.72,NNE,16,2.0,5.0,70,0.00,,CLR,0.00,VWS V14.00,2013-07-24 14:34:00,
2013-07-24 10:39:00,79.7,69.1,29.72,NW,304,5.0,8.0,70,0.00,,CLR,0.00,VWS V14.00,2013-07-24 14:39:00,
2013-07-24 10:44:00,79.3,68.7,29.72,NNE,14,5.0,8.0,70,0.00,,CLR,0.00,VWS V14.00,2013-07-24 14:44:00,
2013-07-24 10:49:00,79.2,68.6,29.72,NW,320,3.0,8.0,70,0.00,,CLR,0.00,VWS V14.00,2013-07-24 14:49:00,
2013-07-24 10:54:00,79.5,69.3,29.72,NW,326,3.0,8.0,71,0.00,,CLR,0.00,VWS V14.00,2013-07-24 14:54:00,
2013-07-24 10:59:00,79.6,69.4,29.72,WNW,283,1.0,2.0,71,0.00,,CLR,0.00,VWS V14.00,2013-07-24 14:59:00,
2013-07-24 11:00:00,79.6,69.4,29.72,West,277,2.0,8.0,71,0.00,,OVC090,0.00,VWS V14.00,2013-07-24 15:00:00,
2013-07-24 11:04:00,79.6,69.0,29.73,WNW,288,3.0,5.0,70,0.00,,CLR,0.00,VWS V14.00,2013-07-24 15:04:00,
2013-07-24 11:10:00,79.0,68.8,29.73,WNW,302,1.0,5.0,71,0.00,,CLR,0.00,VWS V14.00,2013-07-24 15:10:00,
2013-07-24 11:15:00,79.4,70.0,29.72,NE,36,3.0,5.0,73,0.00,,CLR,0.00,VWS V14.00,2013-07-24 15:15:00,
2013-07-24 11:20:00,79.3,69.9,29.73,NNW,336,6.0,6.0,73,0.00,,CLR,0.00,VWS V14.00,2013-07-24 15:20:00,
2013-07-24 11:25:00,78.9,69.1,29.73,North,6,3.0,6.0,72,0.00,,CLR,0.00,VWS V14.00,2013-07-24 15:25:00,
2013-07-24 11:30:00,78.9,69.1,29.73,North,4,4.0,4.0,72,0.00,,CLR,0.00,VWS V14.00,2013-07-24 15:30:00,
2013-07-24 11:35:00,79.0,69.2,29.73,NW,311,2.0,5.0,72,0.00,,CLR,0.00,VWS V14.00,2013-07-24 15:35:00,
2013-07-24 11:40:00,79.0,68.8,29.73,NNW,336,2.0,5.0,71,0.00,,BKN024,0.00,VWS V14.00,2013-07-24 15:40:00,
2013-07-24 11:45:00,78.9,69.1,29.74,NW,305,1.0,5.0,72,0.00,,BKN024,0.00,VWS V14.00,2013-07-24 15:45:00,
2013-07-24 11:50:00,79.0,69.6,29.74,WNW,291,0.0,5.0,73,0.00,,BKN024,0.00,VWS V14.00,2013-07-24 15:50:00,
2013-07-24 11:56:00,78.8,69.4,29.74,NNW,331,2.0,7.0,73,0.00,,BKN024,0.00,VWS V14.00,2013-07-24 15:56:00,
2013-07-24 12:00:00,78.7,68.9,29.74,NNW,339,3.0,7.0,72,0.00,,OVC090,0.00,VWS V14.00,2013-07-24 16:00:00,
2013-07-24 12:01:00,78.8,69.4,29.74,NNW,344,1.0,3.0,73,0.00,,SCT024,0.00,VWS V14.00,2013-07-24 16:01:00,
2013-07-24 12:06:00,79.4,70.0,29.74,NNW,344,0.0,4.0,73,0.00,,SCT024,0.00,VWS V14.00,2013-07-24 16:06:00,
2013-07-24 12:11:00,80.1,69.9,29.74,NW,325,3.0,5.0,71,0.00,,SCT024,0.00,VWS V14.00,2013-07-24 16:11:00,
2013-07-24 12:16:00,78.8,69.4,29.75,NNW,331,6.0,8.0,73,0.00,,SCT024,0.00,VWS V14.00,2013-07-24 16:16:00,
2013-07-24 12:21:00,77.9,68.6,29.74,West,274,1.0,8.0,73,0.00,,SCT024,0.00,VWS V14.00,2013-07-24 16:21:00,
2013-07-24 12:26:00,77.6,68.3,29.74,NNW,344,4.0,8.0,73,0.00,,SCT024,0.00,VWS V14.00,2013-07-24 16:26:00,
2013-07-24 12:30:00,77.6,68.7,29.74,NNE,18,4.0,8.0,74,0.00,,OVC090,0.00,VWS V14.00,2013-07-24 16:30:00,
2013-07-24 12:31:00,77.5,68.2,29.75,NNW,333,6.0,9.0,73,0.00,,SCT024,0.00,VWS V14.00,2013-07-24 16:31:00,
2013-07-24 12:37:00,77.5,67.8,29.75,NNW,338,3.0,9.0,72,0.00,,SCT024,0.00,VWS V14.00,2013-07-24 16:37:00,
2013-07-24 12:42:00,77.5,68.2,29.74,NNW,342,1.0,9.0,73,0.00,,SCT024,0.00,VWS V14.00,2013-07-24 16:42:00,
2013-07-24 12:47:00,78.4,69.4,29.75,WNW,293,2.0,9.0,74,0.00,,SCT024,0.00,VWS V14.00,2013-07-24 16:47:00,
2013-07-24 12:52:00,78.3,68.1,29.75,NNW,346,2.0,9.0,71,0.00,,BKN030,0.00,VWS V14.00,2013-07-24 16:52:00,
2013-07-24 12:58:00,78.1,67.5,29.75,North,4,3.0,9.0,70,0.00,,BKN030,0.00,VWS V14.00,2013-07-24 16:58:00,
2013-07-24 13:00:00,78.1,67.9,29.75,WNW,285,4.0,9.0,71,0.00,,OVC090,0.00,VWS V14.00,2013-07-24 17:00:00,
2013-07-24 13:03:00,78.1,67.1,29.75,NW,316,2.0,7.0,69,0.00,,BKN034,0.00,VWS V14.00,2013-07-24 17:03:00,
2013-07-24 13:08:00,77.7,66.7,29.75,NNW,339,1.0,7.0,69,0.00,,BKN034,0.00,VWS V14.00,2013-07-24 17:08:00,
2013-07-24 13:13:00,78.0,67.0,29.75,NW,316,3.0,7.0,69,0.00,,BKN034,0.00,VWS V14.00,2013-07-24 17:13:00,
2013-07-24 13:18:00,77.8,67.2,29.75,NE,55,1.0,9.0,70,0.00,,BKN034,0.00,VWS V14.00,2013-07-24 17:18:00,
2013-07-24 13:23:00,78.4,67.0,29.76,NNE,17,0.0,9.0,68,0.00,,BKN034,0.00,VWS V14.00,2013-07-24 17:23:00,
2013-07-24 13:28:00,78.3,66.4,29.75,WNW,291,3.0,9.0,67,0.00,,BKN034,0.00,VWS V14.00,2013-07-24 17:28:00,
2013-07-24 13:30:00,78.3,66.4,29.76,WNW,292,3.0,9.0,67,0.00,,OVC090,0.00,VWS V14.00,2013-07-24 17:30:00,
2013-07-24 13:33:00,78.3,66.9,29.76,North,6,1.0,7.0,68,0.00,,BKN034,0.00,VWS V14.00,2013-07-24 17:33:00,
2013-07-24 13:38:00,79.0,67.1,29.75,WNW,301,5.0,7.0,67,0.00,,BKN034,0.00,VWS V14.00,2013-07-24 17:38:00,
2013-07-24 13:43:00,79.3,67.0,29.75,NW,304,2.0,7.0,66,0.00,,BKN034,0.00,VWS V14.00,2013-07-24 17:43:00,
2013-07-24 13:48:00,79.5,66.7,29.76,NW,309,5.0,8.0,65,0.00,,BKN034,0.00,VWS V14.00,2013-07-24 17:48:00,
2013-07-24 13:54:00,79.0,66.7,29.76,NNW,329,6.0,8.0,66,0.00,,BKN034,0.00,VWS V14.00,2013-07-24 17:54:00,
2013-07-24 13:59:00,79.0,67.1,29.76,WNW,290,1.0,8.0,67,0.00,,BKN034,0.00,VWS V14.00,2013-07-24 17:59:00,
2013-07-24 14:00:00,79.0,67.1,29.76,WNW,290,0.0,8.0,67,0.00,,OVC090,0.00,VWS V14.00,2013-07-24 18:00:00,
2013-07-24 14:30:00,79.2,66.0,29.76,NNW,330,2.0,9.0,64,0.00,,OVC090,0.00,VWS V14.00,2013-07-24 18:30:00,
2013-07-24 14:43:00,81.0,67.7,29.76,ENE,76,2.0,6.0,64,0.00,,BKN034,0.00,VWS V14.00,2013-07-24 18:43:00,
2013-07-24 14:53:00,79.4,65.3,29.77,NW,322,1.0,7.0,62,0.00,,BKN034,0.00,VWS V14.00,2013-07-24 18:53:00,
2013-07-24 15:00:00,78.4,65.7,29.77,North,350,3.0,7.0,65,0.00,,OVC090,0.00,VWS V14.00,2013-07-24 19:00:00,
2013-07-24 15:02:00,78.2,65.9,29.77,NW,311,0.0,2.0,66,0.00,,BKN034,0.00,VWS V14.00,2013-07-24 19:02:00,
2013-07-24 15:07:00,78.1,65.4,29.77,NNW,331,3.0,8.0,65,0.00,,BKN034,0.00,VWS V14.00,2013-07-24 19:07:00,
2013-07-24 15:12:00,77.7,65.9,29.77,WNW,290,1.0,8.0,67,0.00,,OVC037,0.00,VWS V14.00,2013-07-24 19:12:00,
2013-07-24 15:17:00,78.5,66.6,29.77,NNW,335,5.0,8.0,67,0.00,,OVC037,0.00,VWS V14.00,2013-07-24 19:17:00,
2013-07-24 15:22:00,79.0,66.2,29.77,NE,34,2.0,9.0,65,0.00,,OVC037,0.00,VWS V14.00,2013-07-24 19:22:00,
2013-07-24 15:27:00,79.7,66.5,29.77,NE,34,3.0,9.0,64,0.00,,OVC037,0.00,VWS V14.00,2013-07-24 19:27:00,
2013-07-24 15:30:00,79.8,65.2,29.77,NNW,339,7.0,9.0,61,0.00,,OVC090,0.00,VWS V14.00,2013-07-24 19:30:00,
2013-07-24 15:32:00,79.1,65.4,29.77,NNW,331,4.0,7.0,63,0.00,,OVC037,0.00,VWS V14.00,2013-07-24 19:32:00,
2013-07-24 15:38:00,78.8,65.2,29.77,NW,320,2.0,7.0,63,0.00,,OVC037,0.00,VWS V14.00,2013-07-24 19:38:00,
2013-07-24 15:43:00,79.2,66.0,29.76,NNW,329,2.0,7.0,64,0.00,,OVC037,0.00,VWS V14.00,2013-07-24 19:43:00,
2013-07-24 15:48:00,80.0,68.1,29.77,WNW,294,1.0,7.0,67,0.00,,OVC037,0.00,VWS V14.00,2013-07-24 19:48:00,
2013-07-24 15:53:00,80.2,65.5,29.77,NNE,30,3.0,7.0,61,0.00,,OVC037,0.00,VWS V14.00,2013-07-24 19:53:00,
2013-07-24 15:58:00,79.9,65.7,29.77,West,276,1.0,7.0,62,0.00,,OVC037,0.00,VWS V14.00,2013-07-24 19:58:00,
2013-07-24 16:00:00,79.9,65.7,29.77,SE,136,1.0,7.0,62,0.00,,OVC090,0.00,VWS V14.00,2013-07-24 20:00:00,
2013-07-24 16:03:00,79.9,64.8,29.77,NNE,15,3.0,6.0,60,0.00,,BKN034,0.00,VWS V14.00,2013-07-24 20:03:00,
2013-07-24 16:08:00,79.4,65.3,29.77,North,360,1.0,6.0,62,0.00,,BKN034,0.00,VWS V14.00,2013-07-24 20:08:00,
2013-07-24 16:13:00,79.1,65.9,29.77,East,101,1.0,6.0,64,0.00,,BKN034,0.00,VWS V14.00,2013-07-24 20:13:00,
2013-07-24 16:19:00,79.9,66.7,29.77,WNW,293,2.0,6.0,64,0.00,,BKN034,0.00,VWS V14.00,2013-07-24 20:19:00,
2013-07-24 16:24:00,79.7,66.0,29.76,NNW,344,4.0,6.0,63,0.00,,BKN034,0.00,VWS V14.00,2013-07-24 20:24:00,
2013-07-24 16:29:00,78.8,65.6,29.77,NW,323,3.0,6.0,64,0.00,,BKN034,0.00,VWS V14.00,2013-07-24 20:29:00,
2013-07-24 16:30:00,78.8,65.6,29.77,WNW,300,3.0,6.0,64,0.00,,OVC090,0.00,VWS V14.00,2013-07-24 20:30:00,
2013-07-24 16:34:00,78.2,65.9,29.77,NNW,341,2.0,4.0,66,0.00,,BKN034,0.00,VWS V14.00,2013-07-24 20:34:00,
2013-07-24 16:39:00,78.3,65.1,29.77,NNW,347,1.0,4.0,64,0.00,,BKN034,0.00,VWS V14.00,2013-07-24 20:39:00,
2013-07-24 16:44:00,78.5,65.3,29.76,NW,313,1.0,8.0,64,0.00,,BKN034,0.00,VWS V14.00,2013-07-24 20:44:00,
2013-07-24 16:49:00,79.8,65.2,29.77,North,360,3.0,8.0,61,0.00,,BKN034,0.00,VWS V14.00,2013-07-24 20:49:00,
2013-07-24 16:54:00,80.1,65.9,29.77,NNE,18,2.0,8.0,62,0.00,,BKN034,0.00,VWS V14.00,2013-07-24 20:54:00,
2013-07-24 17:00:00,79.7,65.5,29.77,NE,37,1.0,2.0,62,0.00,,BKN034,0.00,VWS V14.00,2013-07-24 21:00:00,
2013-07-24 17:05:00,79.5,64.9,29.77,NNW,343,2.0,3.0,61,0.00,,OVC040,0.00,VWS V14.00,2013-07-24 21:05:00,
2013-07-24 17:10:00,79.4,65.3,29.76,NNW,345,2.0,5.0,62,0.00,,OVC040,0.00,VWS V14.00,2013-07-24 21:10:00,
2013-07-24 17:15:00,79.4,65.3,29.77,NNW,347,1.0,5.0,62,0.00,,OVC040,0.00,VWS V14.00,2013-07-24 21:15:00,
2013-07-24 17:20:00,79.3,67.0,29.77,NNW,335,0.0,5.0,66,0.00,,OVC040,0.00,VWS V14.00,2013-07-24 21:20:00,
2013-07-24 17:25:00,79.0,65.3,29.77,NW,304,0.0,5.0,63,0.00,,OVC040,0.00,VWS V14.00,2013-07-24 21:25:00,
2013-07-24 17:30:00,79.2,65.1,29.77,ENE,77,1.0,3.0,62,0.00,,OVC040,0.00,VWS V14.00,2013-07-24 21:30:00,
2013-07-24 17:35:00,79.6,65.4,29.77,NNW,330,4.0,4.0,62,0.00,,OVC040,0.00,VWS V14.00,2013-07-24 21:35:00,
2013-07-24 17:41:00,79.2,64.1,29.77,NW,316,2.0,5.0,60,0.00,,OVC040,0.00,VWS V14.00,2013-07-24 21:41:00,
2013-07-24 17:46:00,79.0,64.9,29.77,NNW,330,0.0,5.0,62,0.00,,OVC040,0.00,VWS V14.00,2013-07-24 21:46:00,
2013-07-24 17:51:00,79.1,65.0,29.77,NW,321,1.0,5.0,62,0.00,,OVC040,0.00,VWS V14.00,2013-07-24 21:51:00,
2013-07-24 17:56:00,79.0,64.9,29.77,NW,305,1.0,5.0,62,0.00,,OVC040,0.00,VWS V14.00,2013-07-24 21:56:00,
2013-07-24 18:00:00,79.0,66.2,29.77,NW,305,0.0,5.0,65,0.00,,OVC090,0.00,VWS V14.00,2013-07-24 22:00:00,
2013-07-24 18:01:00,79.0,65.8,29.77,NW,304,0.0,0.0,64,0.00,,FEW044,0.00,VWS V14.00,2013-07-24 22:01:00,
2013-07-24 18:07:00,79.5,66.3,29.77,NW,305,0.0,0.0,64,0.00,,FEW044,0.00,VWS V14.00,2013-07-24 22:07:00,
2013-07-24 18:12:00,79.0,65.8,29.77,WNW,300,2.0,3.0,64,0.00,,FEW044,0.00,VWS V14.00,2013-07-24 22:12:00,
2013-07-24 18:17:00,78.4,66.1,29.77,NW,315,1.0,3.0,66,0.00,,FEW044,0.00,VWS V14.00,2013-07-24 22:17:00,
2013-07-24 18:22:00,78.4,65.2,29.78,NW,325,0.0,3.0,64,0.00,,FEW044,0.00,VWS V14.00,2013-07-24 22:22:00,
2013-07-24 18:27:00,78.1,64.9,29.78,North,3,0.0,3.0,64,0.00,,FEW044,0.00,VWS V14.00,2013-07-24 22:27:00,
2013-07-24 18:30:00,77.9,65.2,29.78,NNE,16,2.0,3.0,65,0.00,,OVC090,0.00,VWS V14.00,2013-07-24 22:30:00,
2013-07-24 18:32:00,77.6,64.0,29.78,WNW,294,2.0,5.0,63,0.00,,FEW044,0.00,VWS V14.00,2013-07-24 22:32:00,
2013-07-24 18:37:00,77.6,64.5,29.78,NNW,342,0.0,5.0,64,0.00,,FEW044,0.00,VWS V14.00,2013-07-24 22:37:00,
2013-07-24 18:42:00,77.7,63.2,29.78,NNE,14,1.0,5.0,61,0.00,,FEW044,0.00,VWS V14.00,2013-07-24 22:42:00,
2013-07-24 18:47:00,77.7,63.7,29.78,NNW,329,1.0,5.0,62,0.00,,FEW044,0.00,VWS V14.00,2013-07-24 22:47:00,
2013-07-24 18:52:00,77.4,63.8,29.79,NNW,347,1.0,5.0,63,0.00,,FEW044,0.00,VWS V14.00,2013-07-24 22:52:00,
2013-07-24 18:57:00,77.2,64.1,29.79,NW,325,0.0,5.0,64,0.00,,FEW044,0.00,VWS V14.00,2013-07-24 22:57:00,
2013-07-24 19:00:00,77.1,64.0,29.79,NNE,19,1.0,5.0,64,0.00,,OVC090,0.00,VWS V14.00,2013-07-24 23:00:00,
2013-07-24 19:02:00,76.7,64.1,29.79,NNW,333,0.0,3.0,65,0.00,,FEW047,0.00,VWS V14.00,2013-07-24 23:02:00,
2013-07-24 19:08:00,76.2,63.1,29.79,ENE,63,1.0,3.0,64,0.00,,FEW047,0.00,VWS V14.00,2013-07-24 23:08:00,
2013-07-24 19:13:00,75.8,64.1,29.80,NNW,330,0.0,3.0,67,0.00,,FEW047,0.00,VWS V14.00,2013-07-24 23:13:00,
2013-07-24 19:18:00,75.4,64.1,29.80,NNW,330,0.0,3.0,68,0.00,,FEW047,0.00,VWS V14.00,2013-07-24 23:18:00,
2013-07-24 19:23:00,75.1,63.4,29.80,NNW,327,3.0,5.0,67,0.00,,FEW047,0.00,VWS V14.00,2013-07-24 23:23:00,
2013-07-24 19:28:00,75.1,63.4,29.81,NW,316,2.0,5.0,67,0.00,,FEW047,0.00,VWS V14.00,2013-07-24 23:28:00,
2013-07-24 19:30:00,75.1,63.4,29.81,NW,316,0.0,5.0,67,0.00,,OVC090,0.00,VWS V14.00,2013-07-24 23:30:00,
2013-07-24 19:33:00,75.1,62.5,29.81,NW,326,1.0,5.0,65,0.00,,FEW047,0.00,VWS V14.00,2013-07-24 23:33:00,
2013-07-24 19:38:00,75.0,61.6,29.81,WNW,301,0.0,5.0,63,0.00,,FEW047,0.00,VWS V14.00,2013-07-24 23:38:00,
2013-07-24 19:43:00,74.9,61.5,29.81,NNW,341,2.0,8.0,63,0.00,,FEW047,0.00,VWS V14.00,2013-07-24 23:43:00,
2013-07-24 19:48:00,74.6,60.7,29.82,NNE,20,0.0,8.0,62,0.00,,FEW047,0.00,VWS V14.00,2013-07-24 23:48:00,
2013-07-24 19:53:00,74.3,60.5,29.82,NNW,346,1.0,8.0,62,0.00,,FEW047,0.00,VWS V14.00,2013-07-24 23:53:00,
2013-07-24 19:59:00,73.9,60.1,29.82,NW,318,2.0,9.0,62,0.00,,FEW047,0.00,VWS V14.00,2013-07-24 23:59:00,
2013-07-24 20:00:00,73.9,60.1,29.82,North,11,2.0,9.0,62,0.00,,OVC090,0.00,VWS V14.00,2013-07-25 00:00:00,
2013-07-24 20:04:00,73.7,59.9,29.82,NE,38,4.0,6.0,62,0.00,,BKN055,0.00,VWS V14.00,2013-07-25 00:04:00,
2013-07-24 20:09:00,73.4,59.2,29.82,NW,318,1.0,7.0,61,0.00,,BKN055,0.00,VWS V14.00,2013-07-25 00:09:00,
2013-07-24 20:14:00,73.2,59.4,29.83,North,5,3.0,8.0,62,0.00,,BKN055,0.00,VWS V14.00,2013-07-25 00:14:00,
2013-07-24 20:19:00,72.8,59.0,29.83,NE,47,4.0,8.0,62,0.00,,BKN055,0.00,VWS V14.00,2013-07-25 00:19:00,
2013-07-24 20:24:00,72.5,59.2,29.83,NW,318,1.0,8.0,63,0.00,,BKN055,0.00,VWS V14.00,2013-07-25 00:24:00,
2013-07-24 20:29:00,72.2,59.4,29.83,North,3,1.0,2.0,64,0.00,,BKN055,0.00,VWS V14.00,2013-07-25 00:29:00,
2013-07-24 20:30:00,72.2,59.4,29.84,NNE,13,2.0,8.0,64,0.00,,OVC090,0.00,VWS V14.00,2013-07-25 00:30:00,
2013-07-24 20:34:00,71.8,58.5,29.84,NW,316,3.0,4.0,63,0.00,,BKN055,0.00,VWS V14.00,2013-07-25 00:34:00,
2013-07-24 20:40:00,71.5,58.7,29.84,NNE,27,0.0,4.0,64,0.00,,BKN055,0.00,VWS V14.00,2013-07-25 00:40:00,
2013-07-24 20:45:00,71.0,59.1,29.84,NNE,13,0.0,4.0,66,0.00,,BKN055,0.00,VWS V14.00,2013-07-25 00:45:00,
2013-07-24 20:50:00,70.6,58.7,29.85,NNW,336,1.0,4.0,66,0.00,,BKN055,0.00,VWS V14.00,2013-07-25 00:50:00,
2013-07-24 20:55:00,70.2,58.3,29.85,North,360,3.0,4.0,66,0.00,,BKN055,0.00,VWS V14.00,2013-07-25 00:55:00,
2013-07-24 21:00:00,70.0,58.1,29.85,NNW,340,0.0,4.0,66,0.00,,BKN055,0.00,VWS V14.00,2013-07-25 01:00:00,
2013-07-24 21:05:00,69.8,58.4,29.85,NNE,20,0.0,4.0,67,0.00,,CLR,0.00,VWS V14.00,2013-07-25 01:05:00,
2013-07-24 21:10:00,69.8,57.9,29.86,NNW,339,6.0,8.0,66,0.00,,CLR,0.00,VWS V14.00,2013-07-25 01:10:00,
2013-07-24 21:16:00,69.9,57.6,29.86,NE,46,2.0,8.0,65,0.00,,CLR,0.00,VWS V14.00,2013-07-25 01:16:00,
2013-07-24 21:21:00,69.8,57.5,29.86,NW,326,3.0,8.0,65,0.00,,CLR,0.00,VWS V14.00,2013-07-25 01:21:00,
2013-07-24 21:26:00,69.6,57.3,29.87,North,8,1.0,8.0,65,0.00,,CLR,0.00,VWS V14.00,2013-07-25 01:26:00,
2013-07-24 21:30:00,69.4,57.6,29.87,North,356,0.0,8.0,66,0.00,,OVC090,0.00,VWS V14.00,2013-07-25 01:30:00,
2013-07-24 21:32:00,69.3,57.5,29.87,North,9,0.0,2.0,66,0.00,,CLR,0.00,VWS V14.00,2013-07-25 01:32:00,
2013-07-24 21:37:00,68.9,57.5,29.88,North,355,1.0,5.0,67,0.00,,CLR,0.00,VWS V14.00,2013-07-25 01:37:00,
2013-07-24 21:42:00,68.6,57.6,29.88,NW,316,1.0,5.0,68,0.00,,CLR,0.00,VWS V14.00,2013-07-25 01:42:00,
2013-07-24 21:48:00,68.4,57.8,29.88,North,349,1.0,5.0,69,0.00,,CLR,0.00,VWS V14.00,2013-07-25 01:48:00,
2013-07-24 21:53:00,68.2,57.2,29.88,North,11,2.0,5.0,68,0.00,,CLR,0.00,VWS V14.00,2013-07-25 01:53:00,
2013-07-24 21:58:00,68.0,57.1,29.88,NNE,32,1.0,5.0,68,0.00,,CLR,0.00,VWS V14.00,2013-07-25 01:58:00,
2013-07-24 22:00:00,68.0,57.1,29.88,NNE,19,3.0,6.0,68,0.00,,OVC090,0.00,VWS V14.00,2013-07-25 02:00:00,
2013-07-24 22:03:00,67.9,57.0,29.88,North,9,2.0,4.0,68,0.00,,CLR,0.00,VWS V14.00,2013-07-25 02:03:00,
2013-07-24 22:08:00,67.8,56.9,29.88,North,360,4.0,7.0,68,0.00,,CLR,0.00,VWS V14.00,2013-07-25 02:08:00,
2013-07-24 22:13:00,67.7,56.8,29.89,NNE,32,1.0,7.0,68,0.00,,CLR,0.00,VWS V14.00,2013-07-25 02:13:00,
2013-07-24 22:18:00,67.4,56.9,29.89,NW,310,1.0,7.0,69,0.00,,CLR,0.00,VWS V14.00,2013-07-25 02:18:00,
2013-07-24 22:23:00,67.1,56.6,29.89,NNE,16,0.0,7.0,69,0.00,,CLR,0.00,VWS V14.00,2013-07-25 02:23:00,
2013-07-24 22:28:00,66.8,56.3,29.89,NNE,16,1.0,7.0,69,0.00,,CLR,0.00,VWS V14.00,2013-07-25 02:28:00,
2013-07-24 22:30:00,66.8,56.3,29.90,North,9,2.0,7.0,69,0.00,,OVC090,0.00,VWS V14.00,2013-07-25 02:30:00,
2013-07-24 22:33:00,66.8,56.3,29.90,North,11,1.0,7.0,69,0.00,,CLR,0.00,VWS V14.00,2013-07-25 02:33:00,
2013-07-24 22:39:00,66.7,56.2,29.90,North,357,2.0,7.0,69,0.00,,CLR,0.00,VWS V14.00,2013-07-25 02:39:00,
2013-07-24 22:44:00,66.6,56.1,29.90,NNW,344,5.0,7.0,69,0.00,,CLR,0.00,VWS V14.00,2013-07-25 02:44:00,
2013-07-24 22:49:00,66.4,55.9,29.90,North,1,0.0,7.0,69,0.00,,CLR,0.00,VWS V14.00,2013-07-25 02:49:00,
2013-07-24 22:54:00,66.2,55.7,29.90,North,355,1.0,7.0,69,0.00,,CLR,0.00,VWS V14.00,2013-07-25 02:54:00,
2013-07-24 22:59:00,66.0,55.5,29.90,NNW,329,5.0,8.0,69,0.00,,CLR,0.00,VWS V14.00,2013-07-25 02:59:00,
2013-07-24 23:00:00,66.0,55.5,29.90,NNW,329,5.0,8.0,69,0.00,,OVC090,0.00,VWS V14.00,2013-07-25 03:00:00,
2013-07-24 23:04:00,65.8,55.4,29.90,ESE,104,1.0,6.0,69,0.00,,CLR,0.00,VWS V14.00,2013-07-25 03:04:00,
2013-07-24 23:09:00,65.7,55.3,29.90,North,8,1.0,7.0,69,0.00,,CLR,0.00,VWS V14.00,2013-07-25 03:09:00,
2013-07-24 23:15:00,65.6,55.2,29.90,North,9,1.0,7.0,69,0.00,,CLR,0.00,VWS V14.00,2013-07-25 03:15:00,
2013-07-24 23:22:00,65.3,54.9,29.91,North,9,2.0,7.0,69,0.00,,CLR,0.00,VWS V14.00,2013-07-25 03:22:00,
2013-07-24 23:27:00,65.1,55.1,29.91,NNE,32,1.0,7.0,70,0.00,,CLR,0.00,VWS V14.00,2013-07-25 03:27:00,
2013-07-24 23:30:00,65.0,55.0,29.91,NW,316,2.0,7.0,70,0.00,,OVC090,0.00,VWS V14.00,2013-07-25 03:30:00,
2013-07-24 23:33:00,65.0,55.0,29.91,NW,322,2.0,6.0,70,0.00,,CLR,0.00,VWS V14.00,2013-07-25 03:33:00,
2013-07-24 23:38:00,64.9,54.9,29.91,NNE,14,0.0,6.0,70,0.00,,CLR,0.00,VWS V14.00,2013-07-25 03:38:00,
2013-07-24 23:43:00,64.7,54.7,29.91,NNW,347,1.0,6.0,70,0.00,,CLR,0.00,VWS V14.00,2013-07-25 03:43:00,
2013-07-24 23:49:00,64.5,54.9,29.91,East,96,1.0,6.0,71,0.00,,CLR,0.00,VWS V14.00,2013-07-25 03:49:00,
2013-07-24 23:54:00,64.3,54.7,29.91,NNW,345,3.0,6.0,71,0.00,,CLR,0.00,VWS V14.00,2013-07-25 03:54:00,